Home   Weather   Singapore   Past weeks
Flag for Singapore

Past Weather in Singapore, Singapore — May 2018

Now
84 °F

Passing clouds.


Feels Like: 94 °F
Forecast: 90 / 80 °F
Wind: 6 mph from Southeast

Location: Singapore / Paya Lebar

Current Time: Aug 22, 2019 at 11:46:00 pm

Latest Report: Aug 22, 2019 at 11:00 pm


Visibility: N/A

Pressure: 29.86 "Hg

Humidity: 79%

Dew Point: 77 °F

Location of SingaporeLocation

May 2018 Weather in Singapore — Graph

°F

High & Low Weather Summary for May 2018

 TemperatureHumidityPressure
High95 °F (May 9, 3:00 pm)100% (May 2, 2:00 am)29.92 "Hg (May 2, 2:00 am)
Low75 °F (May 3, 5:20 pm)47% (May 8, 4:00 pm)29.68 "Hg (May 15, 5:27 pm)
Average84 °F79%29.79 "Hg
* Reported May 1 12:00 am — May 31 11:00 pm, Singapore. Weather by CustomWeather, © 2019

Note: Actual official high and low records may vary slightly from our data, if they occured in-between our weather recording intervals... More about our weather records

Advertising

Singapore Weather History for May 1, 2018

Scroll right to see more
 ConditionsComfort  
Time TempWeatherWind HumidityBarometerVisibility
12:00 am
Tue, May 1
82 °FPassing clouds.2 mph89%29.83 "HgN/A
1:00 am82 °FThunderstorms. Passing clouds.2 mph89%29.83 "HgN/A
2:00 am82 °FThunderstorms. Passing clouds.8 mph84%29.83 "HgN/A
3:00 am81 °FPartly cloudy.3 mph84%29.80 "HgN/A
4:00 am81 °FPassing clouds.7 mph84%29.80 "HgN/A
5:00 am81 °FPassing clouds.2 mph84%29.83 "HgN/A
6:00 am81 °FPassing clouds.2 mph84%29.80 "HgN/A
7:00 am81 °FPartly sunny.5 mph84%29.80 "HgN/A
8:00 am81 °FPartly sunny.2 mph89%29.83 "HgN/A
9:00 am84 °FBroken clouds.2 mph79%29.86 "HgN/A
10:00 am82 °FStrong thunderstorms. Scattered clouds.8 mph84%29.89 "Hg2 mi
10:35 am79 °FThunderstorms. Partly sunny.7 mph94%29.89 "Hg4 mi
11:00 am81 °FThundershowers. Partly sunny.9 mph89%29.89 "Hg5 mi
12:00 pm82 °FScattered showers. Partly sunny.9 mph84%29.89 "HgN/A
1:00 pm86 °FScattered showers. Partly sunny.10 mph75%29.86 "HgN/A
2:00 pm84 °FScattered showers. Partly sunny.7 mph74%29.86 "HgN/A
2:05 pm84 °FThundershowers. Partly sunny.7 mph74%29.86 "HgN/A
3:00 pm84 °FSprinkles. Partly sunny.2 mph79%29.83 "HgN/A
4:00 pm84 °FLight rain. Partly sunny.2 mph84%29.80 "HgN/A
5:00 pm84 °FLight rain. Partly sunny.2 mph84%29.80 "HgN/A
6:00 pm82 °FPartly sunny.3 mph89%29.80 "HgN/A
7:00 pm82 °FPartly sunny.3 mph89%29.83 "Hg6 mi
8:00 pm82 °FPassing clouds.2 mph89%29.83 "HgN/A
9:00 pm81 °FPartly cloudy.2 mph94%29.86 "HgN/A
10:00 pm81 °FPassing clouds.6 mph94%29.86 "Hg6 mi
11:00 pm81 °FPassing clouds.2 mph94%29.89 "Hg6 mi
Weather by CustomWeather, © 2019

See weather overview